Flag for Canada Weather past 2 weeks in Kitchener, Ontario, Canada

Now
37 °F

Sunny.


Feels Like: 35 °F
Forecast: N/A
Wind: 3 mph from North

Location: Waterloo Well


UV Index: N/A

Visibility: 9 mi


Pressure: 30.48 "Hg

Humidity: 41%

Dew point: 16 °F

Location of KitchenerLocation

Historic Weather in Kitchener

°F

Kitchener temperature yesterday

Maximum temperature yesterday: 34 °F (at 1:03 AM)
Minimum temperature yesterday: 21 °F (at 9:00 PM)
Average temperature yesterday: 28 °F

Past Weeks' High & Low Weather Summary

 TemperatureHumidityPressure
High70 °F (Apr 13, 6:00 PM)100% (Apr 4, 10:02 AM)30.50 "Hg (Apr 4, 10:02 AM)
Low18 °F (Apr 16, 4:00 AM)25% (Apr 11, 2:00 PM)29.34 "Hg (Apr 8, 4:01 AM)
Average39 °F74%29.90 "Hg
* Reported Apr 1 5:00 PM — Apr 16 5:00 PM, Kitchener, Weather by CustomWeather, © 2014

Note: Actual official high and low records may vary slightly from our data, if they occured in-between our weather recording intervals... More about our weather records

Advertising

Historic Weather Conditions — Data for Previous 24 hours

 ConditionsComfort  
Time TempWeatherWind HumidityBarometerVisibility
5:00 PM
Apr 16
36 °FSunny.6 mph41%30.47 "Hg9 mi
4:00 PM37 °FScattered clouds.9 mph45%30.47 "Hg9 mi
3:00 PM36 °FPartly sunny.5 mph52%30.48 "Hg9 mi
2:00 PM34 °FPartly sunny.3 mph56%30.50 "Hg9 mi
1:00 PM32 °FPartly sunny.8 mph51%30.50 "Hg9 mi
12:00 PM30 °FPartly sunny.12 mph59%30.50 "Hg9 mi
11:00 AM28 °FPassing clouds.10 mph59%30.49 "Hg9 mi
10:00 AM27 °FSunny.8 mph64%30.47 "Hg9 mi
9:00 AM25 °FSunny.3 mph69%30.45 "Hg9 mi
8:00 AM19 °FSunny.3 mph86%30.43 "Hg9 mi
7:00 AM18 °FClear.3 mph79%30.40 "Hg9 mi
6:00 AM18 °FCold.3 mph86%30.35 "Hg9 mi
5:00 AM18 °FClear.5 mph86%30.30 "Hg9 mi
4:00 AM18 °FClear.7 mph86%30.27 "Hg9 mi
3:00 AM19 °FClear.7 mph79%30.25 "Hg9 mi
2:00 AM21 °FClear.10 mph68%30.24 "Hg9 mi
1:00 AM21 °FClear.9 mph68%30.23 "Hg9 mi
12:00 AM21 °FClear.9 mph68%30.21 "Hg9 mi
11:00 PM
Apr 15
21 °FClear.10 mph68%30.20 "Hg9 mi
10:00 PM21 °FClear.13 mph68%30.17 "Hg9 mi
9:00 PM21 °FSunny.16 mph68%30.13 "Hg9 mi
7:00 PM23 °FSunny.21 mph68%30.03 "Hg9 mi
6:00 PM25 °FLight snow. Cloudy.17 mph74%30.00 "Hg7 mi
Weather by CustomWeather, © 2014

See weather overview